| time (UTC) | temp F | wind direction | speed MPH | gust MPH | rain 1hr in | rain 24hr in | rain mn in | humidity % | barometer mb |
| 20260903011911 | 80 | 202 | 0.0 | 0.0 | 0.00 | 0.01 | 0.01 | 89 | 1015.4 |
| 20260903011412 | 80 | 202 | 0.0 | 0.0 | 0.00 | 0.01 | 0.01 | 88 | 1015.2 |
| 20260903011142 | 80 | 202 | 0.0 | 0.0 | 0.00 | 0.01 | 0.01 | 88 | 1015.2 |
| 20260903010411 | 80 | 202 | 0.0 | 0.0 | 0.00 | 0.01 | 0.01 | 88 | 1015.1 |
| 20260903005911 | 80 | 202 | 0.0 | 0.0 | 0.00 | 0.01 | 0.01 | 87 | 1015.1 |
| 20260903005411 | 80 | 202 | 0.0 | 0.0 | 0.00 | 0.01 | 0.01 | 87 | 1015.1 |
| 20260903004910 | 81 | 202 | 0.0 | 0.0 | 0.00 | 0.01 | 0.01 | 87 | 1015.1 |
| 20260903004409 | 81 | 202 | 0.0 | 0.0 | 0.00 | 0.01 | 0.01 | 86 | 1015.0 |
| 20260903003909 | 81 | 202 | 0.0 | 0.0 | 0.00 | 0.01 | 0.01 | 85 | 1014.9 |
| 20260903003410 | 82 | 202 | 0.0 | 0.0 | 0.00 | 0.01 | 0.01 | 84 | 1014.9 |
| 20260903002909 | 82 | 202 | 0.0 | 0.0 | 0.00 | 0.01 | 0.01 | 84 | 1014.9 |
| 20260903002409 | 82 | 202 | 0.0 | 0.0 | 0.00 | 0.01 | 0.01 | 82 | 1014.9 |
| 20260903001909 | 83 | 202 | 0.0 | 0.0 | 0.00 | 0.01 | 0.01 | 81 | 1014.9 |
| 20260903001409 | 83 | 202 | 0.0 | 0.0 | 0.00 | 0.01 | 0.01 | 80 | 1014.9 |
| 20260903001141 | 84 | 202 | 0.0 | 0.0 | 0.00 | 0.01 | 0.01 | 79 | 1014.8 |
| 20260903000410 | 84 | 202 | 0.0 | 0.0 | 0.00 | 0.01 | 0.01 | 77 | 1014.7 |
| 20260902235909 | 85 | 202 | 0.0 | 0.0 | 0.00 | 0.01 | 0.01 | 76 | 1014.8 |
| 20260902235406 | 86 | 202 | 0.0 | 0.0 | 0.00 | 0.01 | 0.01 | 74 | 1014.9 |
| 20260902235137 | 87 | 202 | 0.0 | 0.0 | 0.00 | 0.01 | 0.01 | 72 | 1014.9 |
| 20260902234639 | 88 | 202 | 0.0 | 1.0 | 0.00 | 0.01 | 0.01 | 69 | 1014.8 |
| 20260902233907 | 89 | 202 | 0.0 | 1.0 | 0.00 | 0.01 | 0.01 | 67 | 1014.8 |
| 20260902233407 | 89 | 200 | 0.0 | 1.0 | 0.00 | 0.01 | 0.01 | 66 | 1014.8 |
| 20260902232907 | 90 | 200 | 0.0 | 1.0 | 0.00 | 0.01 | 0.01 | 63 | 1014.8 |
| 20260902232407 | 91 | 200 | 0.0 | 2.0 | 0.00 | 0.01 | 0.01 | 62 | 1014.8 |
| 20260902231906 | 92 | 200 | 0.0 | 2.0 | 0.00 | 0.01 | 0.01 | 60 | 1014.8 |
| 20260902231407 | 92 | 216 | 1.0 | 2.0 | 0.00 | 0.01 | 0.01 | 59 | 1014.8 |
| 20260902230907 | 92 | 200 | 1.0 | 5.0 | 0.00 | 0.01 | 0.01 | 59 | 1014.8 |
| 20260902230405 | 92 | 188 | 1.0 | 5.0 | 0.00 | 0.01 | 0.01 | 58 | 1014.8 |
| 20260902225905 | 92 | 195 | 1.0 | 4.0 | 0.00 | 0.01 | 0.01 | 60 | 1014.8 |
| 20260902225636 | 92 | 215 | 1.0 | 4.0 | 0.00 | 0.01 | 0.01 | 58 | 1014.8 |
| 20260902225136 | 93 | 207 | 2.0 | 4.0 | 0.00 | 0.01 | 0.01 | 57 | 1014.9 |
| 20260902224405 | 93 | 182 | 1.0 | 4.0 | 0.00 | 0.01 | 0.01 | 57 | 1014.9 |
| 20260902223903 | 93 | 213 | 1.0 | 4.0 | 0.00 | 0.01 | 0.01 | 56 | 1014.9 |
| 20260902223403 | 93 | 209 | 1.0 | 4.0 | 0.00 | 0.01 | 0.01 | 57 | 1014.9 |
| 20260902222903 | 93 | 227 | 1.0 | 4.0 | 0.00 | 0.01 | 0.01 | 57 | 1014.9 |
| 20260902222403 | 93 | 186 | 1.0 | 4.0 | 0.00 | 0.01 | 0.01 | 60 | 1015.0 |
| 20260902221903 | 93 | 163 | 1.0 | 4.0 | 0.00 | 0.01 | 0.01 | 58 | 1015.0 |
| 20260902221403 | 92 | 71 | 1.0 | 4.0 | 0.00 | 0.01 | 0.01 | 56 | 1015.0 |
| 20260902220902 | 93 | 102 | 1.0 | 5.0 | 0.00 | 0.01 | 0.01 | 57 | 1015.0 |
| 20260902220634 | 93 | 98 | 1.0 | 5.0 | 0.00 | 0.01 | 0.01 | 55 | 1015.1 |
| 20260902215903 | 93 | 220 | 1.0 | 5.0 | 0.00 | 0.01 | 0.01 | 57 | 1015.1 |
| 20260902215634 | 93 | 214 | 1.0 | 4.0 | 0.00 | 0.01 | 0.01 | 57 | 1015.1 |
| 20260902214903 | 93 | 217 | 2.0 | 5.0 | 0.00 | 0.01 | 0.01 | 60 | 1015.1 |
| 20260902214402 | 93 | 189 | 1.0 | 5.0 | 0.00 | 0.01 | 0.01 | 60 | 1015.2 |
| 20260902213903 | 92 | 216 | 1.0 | 4.0 | 0.00 | 0.01 | 0.01 | 61 | 1015.2 |
| 20260902213401 | 92 | 208 | 1.0 | 5.0 | 0.00 | 0.01 | 0.01 | 64 | 1015.2 |
| 20260902212901 | 92 | 86 | 1.0 | 5.0 | 0.00 | 0.01 | 0.01 | 64 | 1015.3 |
| 20260902212359 | 91 | 82 | 2.0 | 5.0 | 0.00 | 0.01 | 0.01 | 63 | 1015.3 |
| 20260902211859 | 91 | 107 | 1.0 | 5.0 | 0.00 | 0.01 | 0.01 | 64 | 1015.4 |
| 20260902211628 | 91 | 79 | 1.0 | 4.0 | 0.00 | 0.01 | 0.01 | 66 | 1015.3 |
| 20260902210857 | 90 | 120 | 1.0 | 4.0 | 0.00 | 0.01 | 0.01 | 68 | 1015.3 |
| 20260902210357 | 89 | 248 | 1.0 | 4.0 | 0.00 | 0.01 | 0.01 | 68 | 1015.5 |
| 20260902205857 | 88 | 219 | 1.0 | 4.0 | 0.00 | 0.01 | 0.01 | 69 | 1015.4 |
| 20260902205357 | 88 | 221 | 1.0 | 4.0 | 0.01 | 0.01 | 0.01 | 70 | 1015.5 |
| 20260902204857 | 88 | 111 | 1.0 | 3.0 | 0.01 | 0.01 | 0.01 | 72 | 1015.6 |
| 20260902204354 | 87 | 115 | 1.0 | 4.0 | 0.01 | 0.01 | 0.01 | 73 | 1015.7 |
| 20260902204230 | 87 | 191 | 1.0 | 4.0 | 0.01 | 0.01 | 0.01 | 76 | 1016.0 |
| 20260902204127 | 87 | 137 | 1.0 | 4.0 | 0.01 | 0.01 | 0.01 | 72 | 1015.8 |
| 20260902203126 | 85 | 122 | 1.0 | 3.0 | 0.01 | 0.01 | 0.01 | 78 | 1015.9 |
| 20260902202356 | 85 | 226 | 0.0 | 3.0 | 0.01 | 0.01 | 0.01 | 82 | 1015.9 |
| 20260902201855 | 84 | 217 | 0.0 | 1.0 | 0.01 | 0.01 | 0.01 | 82 | 1016.0 |
| 20260902201355 | 83 | 191 | 0.0 | 2.0 | 0.01 | 0.01 | 0.01 | 82 | 1016.0 |
| 20260902200856 | 83 | 166 | 0.0 | 2.0 | 0.01 | 0.01 | 0.01 | 83 | 1015.9 |
| 20260902200355 | 83 | 126 | 1.0 | 3.0 | 0.01 | 0.01 | 0.01 | 81 | 1016.1 |
| 20260902195854 | 83 | 207 | 1.0 | 5.0 | 0.01 | 0.02 | 0.01 | 81 | 1016.2 |
| 20260902195355 | 84 | 109 | 2.0 | 5.0 | 0.00 | 0.05 | 0.01 | 78 | 1016.4 |
| 20260902194854 | 84 | 138 | 2.0 | 4.0 | 0.00 | 0.21 | 0.00 | 76 | 1016.4 |
| 20260902194355 | 85 | 141 | 2.0 | 6.0 | 0.00 | 0.21 | 0.00 | 74 | 1016.6 |
| 20260902193855 | 85 | 80 | 2.0 | 6.0 | 0.00 | 0.21 | 0.00 | 74 | 1016.7 |
| 20260902193355 | 85 | 217 | 2.0 | 6.0 | 0.00 | 0.21 | 0.00 | 74 | 1016.8 |
| 20260902193125 | 85 | 195 | 2.0 | 6.0 | 0.00 | 0.21 | 0.00 | 72 | 1017.0 |
| 20260902192627 | 85 | 300 | 2.0 | 6.0 | 0.00 | 0.21 | 0.00 | 72 | 1017.0 |
| 20260902192127 | 85 | 198 | 2.0 | 6.0 | 0.00 | 0.21 | 0.00 | 72 | 1017.2 |
| 20260902191353 | 86 | 220 | 2.0 | 6.0 | 0.00 | 0.21 | 0.00 | 71 | 1017.1 |
| 20260902190853 | 86 | 105 | 1.0 | 6.0 | 0.00 | 0.21 | 0.00 | 70 | 1017.0 |
| 20260902190353 | 86 | 195 | 0.0 | 4.0 | 0.00 | 0.21 | 0.00 | 71 | 1017.1 |
| 20260902190124 | 86 | 311 | 0.0 | 2.0 | 0.00 | 0.21 | 0.00 | 70 | 1016.8 |
| 20260902185353 | 86 | 311 | 1.0 | 5.0 | 0.00 | 0.21 | 0.00 | 71 | 1016.9 |
| 20260902184853 | 86 | 79 | 2.0 | 7.0 | 0.00 | 0.21 | 0.00 | 70 | 1016.9 |
| 20260902184353 | 86 | 66 | 3.0 | 13.0 | 0.00 | 0.21 | 0.00 | 67 | 1016.8 |
| 20260902184124 | 87 | 44 | 5.0 | 13.0 | 0.00 | 0.21 | 0.00 | 64 | 1016.8 |
| 20260902183351 | 89 | 60 | 6.0 | 13.0 | 0.00 | 0.21 | 0.00 | 65 | 1017.0 |
| 20260902182850 | 92 | 93 | 4.0 | 12.0 | 0.00 | 0.21 | 0.00 | 64 | 1016.9 |
| 20260902182350 | 93 | 46 | 1.0 | 5.0 | 0.00 | 0.21 | 0.00 | 58 | 1016.7 |
| 20260902181849 | 94 | 78 | 2.0 | 6.0 | 0.00 | 0.21 | 0.00 | 55 | 1016.7 |
| 20260902181349 | 94 | 119 | 3.0 | 6.0 | 0.00 | 0.21 | 0.00 | 55 | 1016.9 |
| 20260902180846 | 94 | 55 | 3.0 | 5.0 | 0.00 | 0.21 | 0.00 | 56 | 1016.9 |
| 20260902180346 | 94 | 96 | 3.0 | 5.0 | 0.00 | 0.21 | 0.00 | 55 | 1016.9 |
| 20260902175847 | 94 | 102 | 2.0 | 5.0 | 0.00 | 0.21 | 0.00 | 59 | 1016.9 |
| 20260902175615 | 95 | 103 | 1.0 | 4.0 | 0.00 | 0.21 | 0.00 | 58 | 1017.0 |
| 20260902174844 | 94 | 248 | 1.0 | 3.0 | 0.00 | 0.21 | 0.00 | 57 | 1017.2 |
| 20260902174345 | 93 | 207 | 1.0 | 3.0 | 0.00 | 0.21 | 0.00 | 57 | 1017.3 |
| 20260902173845 | 93 | 188 | 1.0 | 3.0 | 0.00 | 0.21 | 0.00 | 58 | 1017.4 |
| 20260902173344 | 92 | 203 | 0.0 | 3.0 | 0.00 | 0.21 | 0.00 | 62 | 1017.5 |
| 20260902172846 | 92 | 353 | 1.0 | 3.0 | 0.00 | 0.21 | 0.00 | 62 | 1017.6 |
| 20260902172345 | 92 | 101 | 1.0 | 4.0 | 0.00 | 0.21 | 0.00 | 59 | 1017.7 |
| 20260902171842 | 92 | 196 | 1.0 | 4.0 | 0.00 | 0.21 | 0.00 | 60 | 1017.7 |
| 20260902171614 | 92 | 46 | 1.0 | 4.0 | 0.00 | 0.21 | 0.00 | 62 | 1017.8 |
| 20260902170840 | 91 | 34 | 2.0 | 4.0 | 0.00 | 0.21 | 0.00 | 62 | 1017.7 |
| 20260902170341 | 91 | 63 | 3.0 | 6.0 | 0.00 | 0.21 | 0.00 | 63 | 1017.8 |
| 20260902165841 | 92 | 71 | 3.0 | 6.0 | 0.00 | 0.21 | 0.00 | 61 | 1017.8 |
| 20260902165340 | 92 | 46 | 2.0 | 5.0 | 0.00 | 0.21 | 0.00 | 60 | 1017.8 |
| 20260902165115 | 92 | 81 | 2.0 | 6.0 | 0.00 | 0.21 | 0.00 | 60 | 1017.9 |
| 20260902164841 | 92 | 80 | 2.0 | 6.0 | 0.00 | 0.21 | 0.00 | 60 | 1017.9 |
| 20260902164112 | 92 | 67 | 3.0 | 8.0 | 0.00 | 0.21 | 0.00 | 63 | 1017.9 |
| 20260902163341 | 92 | 113 | 3.0 | 8.0 | 0.00 | 0.21 | 0.00 | 63 | 1018.0 |
| 20260902162840 | 92 | 77 | 2.0 | 7.0 | 0.00 | 0.21 | 0.00 | 62 | 1018.0 |
| 20260902162341 | 92 | 114 | 1.0 | 5.0 | 0.00 | 0.21 | 0.00 | 65 | 1018.0 |
| 20260902161841 | 92 | 349 | 2.0 | 5.0 | 0.00 | 0.21 | 0.00 | 63 | 1018.1 |
| 20260902161338 | 91 | 51 | 1.0 | 4.0 | 0.00 | 0.21 | 0.00 | 64 | 1018.0 |
| 20260902160839 | 91 | 76 | 1.0 | 4.0 | 0.00 | 0.21 | 0.00 | 66 | 1018.1 |
| 20260902160339 | 90 | 355 | 1.0 | 4.0 | 0.00 | 0.21 | 0.00 | 67 | 1018.1 |
| 20260902155843 | 90 | 55 | 3.0 | 7.0 | 0.00 | 0.21 | 0.00 | 65 | 1018.2 |
| 20260902155839 | 90 | 353 | 2.0 | 6.0 | 0.00 | 0.21 | 0.00 | 63 | 1018.2 |
| 20260902155109 | 91 | 45 | 3.0 | 7.0 | 0.00 | 0.21 | 0.00 | 63 | 1018.1 |
| 20260902154607 | 91 | 101 | 3.0 | 6.0 | 0.00 | 0.21 | 0.00 | 65 | 1018.2 |
| 20260902153837 | 90 | 58 | 3.0 | 6.0 | 0.00 | 0.21 | 0.00 | 65 | 1018.2 |
| 20260902153337 | 90 | 55 | 3.0 | 7.0 | 0.00 | 0.21 | 0.00 | 65 | 1018.2 |
| 20260902152837 | 90 | 56 | 2.0 | 7.0 | 0.00 | 0.21 | 0.00 | 65 | 1018.3 |
| 20260902152337 | 90 | 72 | 2.0 | 5.0 | 0.00 | 0.21 | 0.00 | 66 | 1018.3 |
| 20260902151834 | 90 | 66 | 2.0 | 5.0 | 0.00 | 0.21 | 0.00 | 68 | 1018.2 |
| 20260902151334 | 89 | 81 | 2.0 | 6.0 | 0.00 | 0.21 | 0.00 | 69 | 1018.3 |
| 20260902150835 | 89 | 39 | 2.0 | 6.0 | 0.00 | 0.21 | 0.00 | 67 | 1018.3 |
| 20260902150333 | 89 | 44 | 2.0 | 5.0 | 0.00 | 0.21 | 0.00 | 68 | 1018.3 |
| 20260902145833 | 89 | 44 | 2.0 | 5.0 | 0.00 | 0.21 | 0.00 | 69 | 1018.2 |
| 20260902145333 | 89 | 6 | 2.0 | 4.0 | 0.00 | 0.21 | 0.00 | 69 | 1018.1 |
| 20260902144832 | 89 | 32 | 2.0 | 4.0 | 0.00 | 0.21 | 0.00 | 71 | 1018.1 |
| 20260902144333 | 88 | 41 | 2.0 | 5.0 | 0.00 | 0.21 | 0.00 | 72 | 1018.1 |
| 20260902143830 | 87 | 114 | 2.0 | 5.0 | 0.00 | 0.21 | 0.00 | 71 | 1018.1 |
| 20260902143331 | 87 | 78 | 2.0 | 4.0 | 0.00 | 0.21 | 0.00 | 71 | 1018.1 |
| 20260902142830 | 87 | 99 | 2.0 | 4.0 | 0.00 | 0.21 | 0.00 | 74 | 1018.2 |
| 20260902142330 | 87 | 56 | 2.0 | 5.0 | 0.00 | 0.21 | 0.00 | 74 | 1018.1 |
| 20260902141831 | 86 | 69 | 3.0 | 6.0 | 0.00 | 0.21 | 0.00 | 75 | 1018.1 |
| 20260902141330 | 86 | 58 | 3.0 | 6.0 | 0.00 | 0.21 | 0.00 | 75 | 1018.2 |
| 20260902140831 | 86 | 45 | 2.0 | 5.0 | 0.00 | 0.21 | 0.00 | 77 | 1018.2 |
| 20260902140331 | 85 | 65 | 3.0 | 5.0 | 0.00 | 0.21 | 0.00 | 78 | 1018.2 |
| 20260902135831 | 85 | 63 | 2.0 | 5.0 | 0.00 | 0.21 | 0.00 | 80 | 1018.2 |
| 20260902135330 | 85 | 49 | 2.0 | 5.0 | 0.00 | 0.21 | 0.00 | 82 | 1018.2 |
| 20260902135101 | 84 | 84 | 3.0 | 8.0 | 0.00 | 0.21 | 0.00 | 83 | 1018.2 |
| 20260902134328 | 84 | 86 | 3.0 | 8.0 | 0.00 | 0.21 | 0.00 | 83 | 1018.2 |
| 20260902133829 | 84 | 44 | 3.0 | 7.0 | 0.00 | 0.21 | 0.00 | 84 | 1018.2 |
| 20260902133328 | 83 | 92 | 3.0 | 6.0 | 0.00 | 0.21 | 0.00 | 85 | 1018.2 |
| 20260902133100 | 83 | 84 | 3.0 | 6.0 | 0.00 | 0.21 | 0.00 | 86 | 1018.2 |
| 20260902132329 | 83 | 78 | 2.0 | 6.0 | 0.00 | 0.21 | 0.00 | 86 | 1018.3 |
| 20260902131828 | 83 | 40 | 2.0 | 3.0 | 0.00 | 0.21 | 0.00 | 87 | 1018.3 |
| 20260902131328 | 83 | 94 | 2.0 | 3.0 | 0.00 | 0.21 | 0.00 | 88 | 1018.2 |
| 20260902130829 | 82 | 52 | 1.0 | 3.0 | 0.00 | 0.21 | 0.00 | 88 | 1018.1 |
| 20260902130328 | 82 | 75 | 1.0 | 3.0 | 0.00 | 0.21 | 0.00 | 89 | 1018.1 |
| 20260902125828 | 82 | 82 | 1.0 | 4.0 | 0.00 | 0.21 | 0.00 | 90 | 1018.1 |
| 20260902125327 | 81 | 51 | 1.0 | 4.0 | 0.00 | 0.21 | 0.00 | 90 | 1018.1 |
| 20260902124827 | 81 | 84 | 1.0 | 2.0 | 0.00 | 0.21 | 0.00 | 91 | 1018.2 |
| 20260902124326 | 80 | 67 | 1.0 | 2.0 | 0.00 | 0.21 | 0.00 | 92 | 1018.1 |
| 20260902123826 | 80 | 70 | 1.0 | 3.0 | 0.00 | 0.21 | 0.00 | 93 | 1018.0 |
| 20260902123325 | 79 | 79 | 1.0 | 3.0 | 0.00 | 0.21 | 0.00 | 94 | 1018.1 |
| 20260902122825 | 79 | 41 | 1.0 | 2.0 | 0.00 | 0.21 | 0.00 | 95 | 1018.1 |
| 20260902122555 | 79 | 106 | 1.0 | 1.0 | 0.00 | 0.21 | 0.00 | 95 | 1018.1 |
| 20260902121823 | 78 | 91 | 1.0 | 2.0 | 0.00 | 0.21 | 0.00 | 95 | 1018.1 |
| 20260902121323 | 78 | 91 | 1.0 | 2.0 | 0.00 | 0.21 | 0.00 | 95 | 1018.1 |
| 20260902120820 | 78 | 102 | 0.0 | 2.0 | 0.00 | 0.21 | 0.00 | 96 | 1018.0 |
| 20260902120321 | 78 | 105 | 0.0 | 1.0 | 0.00 | 0.21 | 0.00 | 96 | 1018.0 |
| 20260902120052 | 77 | 105 | 0.0 | 1.0 | 0.00 | 0.21 | 0.00 | 96 | 1017.9 |
| 20260902115319 | 77 | 105 | 0.0 | 1.0 | 0.00 | 0.21 | 0.00 | 96 | 1017.9 |
| 20260902114819 | 77 | 105 | 0.0 | 1.0 | 0.00 | 0.21 | 0.00 | 96 | 1017.8 |
| 20260902114317 | 76 | 105 | 0.0 | 1.0 | 0.00 | 0.21 | 0.00 | 96 | 1017.7 |
| 20260902113817 | 76 | 105 | 0.0 | 1.0 | 0.00 | 0.21 | 0.00 | 96 | 1017.6 |
| 20260902113316 | 76 | 105 | 0.0 | 1.0 | 0.00 | 0.21 | 0.00 | 96 | 1017.6 |
| 20260902112817 | 76 | 105 | 0.0 | 1.0 | 0.00 | 0.21 | 0.00 | 96 | 1017.6 |
| 20260902112317 | 76 | 105 | 0.0 | 2.0 | 0.00 | 0.21 | 0.00 | 96 | 1017.6 |
| 20260902111817 | 76 | 105 | 0.0 | 2.0 | 0.00 | 0.21 | 0.00 | 96 | 1017.5 |
| 20260902111316 | 76 | 105 | 0.0 | 1.0 | 0.00 | 0.21 | 0.00 | 96 | 1017.4 |
| 20260902110817 | 76 | 105 | 0.0 | 1.0 | 0.00 | 0.21 | 0.00 | 96 | 1017.4 |
| 20260902110316 | 76 | 105 | 0.0 | 0.0 | 0.00 | 0.21 | 0.00 | 96 | 1017.3 |
| 20260902105817 | 76 | 105 | 0.0 | 0.0 | 0.00 | 0.21 | 0.00 | 96 | 1017.3 |
| 20260902105317 | 75 | 105 | 0.0 | 0.0 | 0.00 | 0.21 | 0.00 | 96 | 1017.1 |
| 20260902104816 | 75 | 105 | 0.0 | 0.0 | 0.00 | 0.21 | 0.00 | 96 | 1017.1 |
| 20260902104316 | 75 | 105 | 0.0 | 0.0 | 0.00 | 0.21 | 0.00 | 96 | 1017.0 |
| 20260902103817 | 76 | 105 | 0.0 | 0.0 | 0.00 | 0.21 | 0.00 | 96 | 1017.0 |
| 20260902103548 | 76 | 105 | 0.0 | 0.0 | 0.00 | 0.21 | 0.00 | 96 | 1017.0 |
| 20260902102817 | 76 | 105 | 0.0 | 0.0 | 0.00 | 0.21 | 0.00 | 96 | 1017.0 |
| 20260902102317 | 75 | 105 | 0.0 | 0.0 | 0.00 | 0.21 | 0.00 | 96 | 1017.0 |
| 20260902101816 | 75 | 105 | 0.0 | 0.0 | 0.00 | 0.21 | 0.00 | 96 | 1017.0 |
| 20260902101316 | 76 | 105 | 0.0 | 0.0 | 0.00 | 0.21 | 0.00 | 96 | 1017.0 |
| 20260902100817 | 76 | 105 | 0.0 | 0.0 | 0.00 | 0.21 | 0.00 | 96 | 1017.0 |
| 20260902100317 | 76 | 105 | 0.0 | 0.0 | 0.00 | 0.21 | 0.00 | 96 | 1016.9 |
| 20260902095817 | 76 | 105 | 0.0 | 0.0 | 0.00 | 0.21 | 0.00 | 96 | 1016.9 |
| 20260902095548 | 76 | 105 | 0.0 | 0.0 | 0.00 | 0.21 | 0.00 | 96 | 1017.0 |
| 20260902094816 | 76 | 105 | 0.0 | 0.0 | 0.00 | 0.21 | 0.00 | 96 | 1016.9 |
| 20260902094317 | 76 | 105 | 0.0 | 0.0 | 0.00 | 0.21 | 0.00 | 96 | 1016.9 |
| 20260902094047 | 76 | 105 | 0.0 | 0.0 | 0.00 | 0.21 | 0.00 | 96 | 1016.8 |
| 20260902093317 | 76 | 105 | 0.0 | 0.0 | 0.00 | 0.21 | 0.00 | 96 | 1016.8 |
| 20260902093047 | 76 | 105 | 0.0 | 0.0 | 0.00 | 0.21 | 0.00 | 96 | 1016.7 |
| 20260902092317 | 76 | 105 | 0.0 | 0.0 | 0.00 | 0.21 | 0.00 | 96 | 1016.6 |
| 20260902091816 | 76 | 105 | 0.0 | 0.0 | 0.00 | 0.21 | 0.00 | 95 | 1016.6 |
| 20260902091317 | 76 | 105 | 0.0 | 0.0 | 0.00 | 0.21 | 0.00 | 95 | 1016.6 |
| 20260902090817 | 76 | 105 | 0.0 | 0.0 | 0.00 | 0.21 | 0.00 | 95 | 1016.6 |
| 20260902090317 | 76 | 105 | 0.0 | 0.0 | 0.00 | 0.21 | 0.00 | 95 | 1016.6 |
| 20260902085817 | 76 | 105 | 0.0 | 0.0 | 0.00 | 0.21 | 0.00 | 95 | 1016.5 |
| 20260902085316 | 76 | 105 | 0.0 | 0.0 | 0.00 | 0.21 | 0.00 | 95 | 1016.5 |
| 20260902084816 | 76 | 105 | 0.0 | 0.0 | 0.00 | 0.21 | 0.00 | 95 | 1016.5 |
| 20260902084317 | 76 | 105 | 0.0 | 0.0 | 0.00 | 0.21 | 0.00 | 95 | 1016.4 |
| 20260902083816 | 76 | 105 | 0.0 | 0.0 | 0.00 | 0.21 | 0.00 | 95 | 1016.3 |
| 20260902083316 | 76 | 105 | 0.0 | 0.0 | 0.00 | 0.21 | 0.00 | 95 | 1016.4 |
| 20260902082816 | 76 | 105 | 0.0 | 0.0 | 0.00 | 0.21 | 0.00 | 95 | 1016.3 |
| 20260902082317 | 76 | 105 | 0.0 | 0.0 | 0.00 | 0.21 | 0.00 | 95 | 1016.4 |
| 20260902081816 | 76 | 105 | 0.0 | 0.0 | 0.00 | 0.21 | 0.00 | 95 | 1016.4 |
| 20260902081317 | 76 | 105 | 0.0 | 0.0 | 0.00 | 0.21 | 0.00 | 95 | 1016.4 |
| 20260902080816 | 76 | 105 | 0.0 | 1.0 | 0.00 | 0.21 | 0.00 | 95 | 1016.3 |
| 20260902080317 | 76 | 105 | 0.0 | 1.0 | 0.00 | 0.21 | 0.00 | 95 | 1016.3 |
| 20260902075817 | 76 | 105 | 0.0 | 0.0 | 0.00 | 0.21 | 0.00 | 95 | 1016.3 |
| 20260902075316 | 76 | 105 | 0.0 | 0.0 | 0.00 | 0.21 | 0.00 | 95 | 1016.3 |
| 20260902074817 | 76 | 105 | 0.0 | 0.0 | 0.00 | 0.21 | 0.00 | 95 | 1016.3 |
| 20260902074317 | 76 | 105 | 0.0 | 0.0 | 0.00 | 0.21 | 0.00 | 95 | 1016.3 |
| 20260902073816 | 76 | 105 | 0.0 | 0.0 | 0.00 | 0.21 | 0.00 | 95 | 1016.3 |
| 20260902073317 | 76 | 105 | 0.0 | 0.0 | 0.00 | 0.21 | 0.00 | 95 | 1016.2 |
| 20260902073047 | 76 | 105 | 0.0 | 0.0 | 0.00 | 0.21 | 0.00 | 95 | 1016.3 |
| 20260902072317 | 76 | 105 | 0.0 | 0.0 | 0.00 | 0.21 | 0.00 | 95 | 1016.3 |
| 20260902071816 | 76 | 105 | 0.0 | 0.0 | 0.00 | 0.21 | 0.00 | 95 | 1016.4 |
| 20260902071321 | 76 | 105 | 0.0 | 0.0 | 0.00 | 0.21 | 0.00 | 95 | 1016.5 |
| 20260902071317 | 76 | 105 | 0.0 | 0.0 | 0.00 | 0.21 | 0.00 | 95 | 1016.4 |
| 20260902070317 | 76 | 105 | 0.0 | 0.0 | 0.00 | 0.21 | 0.00 | 95 | 1016.5 |
| 20260902065816 | 77 | 105 | 0.0 | 0.0 | 0.00 | 0.21 | 0.00 | 95 | 1016.5 |
| 20260902065317 | 77 | 105 | 0.0 | 0.0 | 0.00 | 0.21 | 0.00 | 95 | 1016.5 |
| 20260902065048 | 77 | 105 | 0.0 | 1.0 | 0.00 | 0.21 | 0.00 | 95 | 1016.5 |
| 20260902064317 | 77 | 105 | 0.0 | 1.0 | 0.00 | 0.21 | 0.00 | 95 | 1016.5 |
| 20260902063816 | 77 | 105 | 0.0 | 0.0 | 0.00 | 0.21 | 0.00 | 95 | 1016.6 |
| 20260902063316 | 77 | 105 | 0.0 | 0.0 | 0.00 | 0.21 | 0.00 | 95 | 1016.6 |
| 20260902062817 | 77 | 105 | 0.0 | 0.0 | 0.00 | 0.21 | 0.00 | 95 | 1016.5 |
| 20260902062316 | 77 | 105 | 0.0 | 0.0 | 0.00 | 0.21 | 0.00 | 95 | 1016.5 |
| 20260902062047 | 77 | 105 | 0.0 | 0.0 | 0.00 | 0.21 | 0.00 | 95 | 1016.4 |
| 20260902061548 | 77 | 105 | 0.0 | 0.0 | 0.00 | 0.21 | 0.00 | 95 | 1016.4 |
| 20260902060817 | 77 | 105 | 0.0 | 0.0 | 0.00 | 0.21 | 0.00 | 95 | 1016.6 |
| 20260902060316 | 77 | 105 | 0.0 | 0.0 | 0.00 | 0.21 | 0.00 | 95 | 1016.6 |
| 20260902060047 | 77 | 105 | 0.0 | 0.0 | 0.00 | 0.21 | 0.00 | 95 | 1016.7 |
| 20260902055316 | 77 | 105 | 0.0 | 0.0 | 0.00 | 0.21 | 0.00 | 95 | 1016.6 |
| 20260902054816 | 77 | 105 | 0.0 | 0.0 | 0.00 | 0.21 | 0.00 | 95 | 1016.6 |
| 20260902054317 | 77 | 105 | 0.0 | 0.0 | 0.00 | 0.21 | 0.00 | 95 | 1016.6 |
| 20260902053820 | 77 | 105 | 0.0 | 0.0 | 0.00 | 0.21 | 0.00 | 95 | 1016.7 |
| 20260902053816 | 77 | 105 | 0.0 | 0.0 | 0.00 | 0.21 | 0.00 | 95 | 1016.7 |
| 20260902052816 | 77 | 105 | 0.0 | 0.0 | 0.00 | 0.21 | 0.00 | 95 | 1016.7 |
| 20260902052317 | 77 | 105 | 0.0 | 0.0 | 0.00 | 0.21 | 0.00 | 95 | 1016.7 |
| 20260902052046 | 77 | 105 | 0.0 | 0.0 | 0.00 | 0.21 | 0.00 | 95 | 1016.8 |
| 20260902051315 | 77 | 105 | 0.0 | 0.0 | 0.00 | 0.21 | 0.00 | 95 | 1016.8 |
| 20260902050815 | 77 | 105 | 0.0 | 0.0 | 0.00 | 0.21 | 0.00 | 95 | 1016.8 |
| 20260902050544 | 78 | 105 | 0.0 | 0.0 | 0.00 | 0.21 | 0.00 | 95 | 1016.9 |
| 20260902045811 | 78 | 105 | 0.0 | 0.0 | 0.00 | 0.21 | 0.21 | 95 | 1016.9 |
| 20260902045310 | 78 | 105 | 0.0 | 0.0 | 0.00 | 0.21 | 0.21 | 95 | 1016.9 |
| 20260902044809 | 78 | 105 | 0.0 | 0.0 | 0.00 | 0.21 | 0.21 | 94 | 1016.9 |
| 20260902044310 | 78 | 105 | 0.0 | 0.0 | 0.00 | 0.21 | 0.21 | 94 | 1017.0 |
| 20260902043813 | 78 | 105 | 0.0 | 0.0 | 0.00 | 0.21 | 0.21 | 95 | 1017.2 |
| 20260902043809 | 78 | 105 | 0.0 | 0.0 | 0.00 | 0.21 | 0.21 | 94 | 1017.0 |
| 20260902042809 | 78 | 105 | 0.0 | 0.0 | 0.00 | 0.21 | 0.21 | 94 | 1017.2 |
| 20260902042309 | 78 | 105 | 0.0 | 0.0 | 0.00 | 0.21 | 0.21 | 94 | 1017.2 |
| 20260902041808 | 78 | 105 | 0.0 | 0.0 | 0.00 | 0.21 | 0.21 | 94 | 1017.1 |
| 20260902041307 | 78 | 105 | 0.0 | 0.0 | 0.00 | 0.21 | 0.21 | 94 | 1017.2 |
| 20260902040807 | 78 | 105 | 0.0 | 0.0 | 0.00 | 0.21 | 0.21 | 94 | 1017.2 |
| 20260902040307 | 78 | 105 | 0.0 | 0.0 | 0.00 | 0.21 | 0.21 | 94 | 1017.2 |
| 20260902035804 | 78 | 105 | 0.0 | 0.0 | 0.00 | 0.21 | 0.21 | 94 | 1017.2 |
| 20260902035305 | 78 | 105 | 0.0 | 0.0 | 0.00 | 0.21 | 0.21 | 94 | 1017.2 |
| 20260902034805 | 78 | 105 | 0.0 | 0.0 | 0.00 | 0.21 | 0.21 | 94 | 1017.3 |
| 20260902034305 | 78 | 105 | 0.0 | 0.0 | 0.00 | 0.21 | 0.21 | 94 | 1017.4 |
| 20260902033805 | 78 | 105 | 0.0 | 0.0 | 0.00 | 0.21 | 0.21 | 94 | 1017.3 |
| 20260902033305 | 79 | 105 | 0.0 | 0.0 | 0.00 | 0.21 | 0.21 | 94 | 1017.3 |
| 20260902032806 | 79 | 105 | 0.0 | 0.0 | 0.00 | 0.21 | 0.21 | 93 | 1017.3 |
| 20260902032306 | 79 | 105 | 0.0 | 0.0 | 0.00 | 0.21 | 0.21 | 93 | 1017.2 |
| 20260902031805 | 79 | 105 | 0.0 | 0.0 | 0.00 | 0.21 | 0.21 | 93 | 1017.2 |
| 20260902031304 | 79 | 105 | 0.0 | 0.0 | 0.00 | 0.21 | 0.21 | 93 | 1017.3 |
| 20260902030803 | 79 | 105 | 0.0 | 0.0 | 0.00 | 0.21 | 0.21 | 93 | 1017.3 |
| 20260902030303 | 79 | 105 | 0.0 | 0.0 | 0.00 | 0.21 | 0.21 | 93 | 1017.3 |
| 20260902025803 | 79 | 105 | 0.0 | 1.0 | 0.00 | 0.21 | 0.21 | 93 | 1017.3 |
| 20260902025306 | 79 | 105 | 0.0 | 1.0 | 0.00 | 0.21 | 0.21 | 93 | 1017.4 |
| 20260902024802 | 79 | 105 | 0.0 | 1.0 | 0.00 | 0.21 | 0.21 | 93 | 1017.4 |
| 20260902024303 | 79 | 105 | 0.0 | 1.0 | 0.00 | 0.21 | 0.21 | 93 | 1017.4 |
| 20260902023802 | 79 | 105 | 0.0 | 1.0 | 0.00 | 0.21 | 0.21 | 93 | 1017.4 |
| 20260902023303 | 79 | 106 | 0.0 | 1.0 | 0.00 | 0.21 | 0.21 | 92 | 1017.3 |
| 20260902023033 | 79 | 106 | 0.0 | 2.0 | 0.00 | 0.21 | 0.21 | 92 | 1017.4 |
| 20260902022306 | 80 | 106 | 0.0 | 2.0 | 0.00 | 0.21 | 0.21 | 93 | 1017.2 |
| 20260902021803 | 79 | 164 | 0.0 | 1.0 | 0.00 | 0.21 | 0.21 | 94 | 1017.2 |
| 20260902021303 | 79 | 200 | 0.0 | 0.0 | 0.00 | 0.21 | 0.21 | 93 | 1017.1 |
| 20260902020803 | 79 | 200 | 0.0 | 0.0 | 0.00 | 0.21 | 0.21 | 93 | 1017.0 |
| 20260902020303 | 79 | 200 | 0.0 | 0.0 | 0.00 | 0.21 | 0.21 | 93 | 1016.8 |
| 20260902020034 | 79 | 200 | 0.0 | 0.0 | 0.00 | 0.21 | 0.21 | 93 | 1016.9 |
| 20260902015305 | 79 | 200 | 0.0 | 0.0 | 0.00 | 0.21 | 0.21 | 93 | 1016.7 |
| 20260902014803 | 79 | 200 | 0.0 | 0.0 | 0.00 | 0.21 | 0.21 | 92 | 1016.7 |
| 20260902014303 | 79 | 200 | 0.0 | 0.0 | 0.00 | 0.21 | 0.21 | 92 | 1016.6 |
| 20260902013803 | 79 | 200 | 0.0 | 0.0 | 0.00 | 0.21 | 0.21 | 92 | 1016.4 |
| 20260902013300 | 79 | 200 | 0.0 | 0.0 | 0.00 | 0.21 | 0.21 | 92 | 1016.3 |
| 20260902012801 | 79 | 200 | 0.0 | 0.0 | 0.00 | 0.21 | 0.21 | 92 | 1016.2 |
| 20260902012301 | 80 | 200 | 0.0 | 0.0 | 0.00 | 0.21 | 0.21 | 92 | 1016.2 |